Voltar ao catálogo

NOAA 16 DEB

AtivoPO
NORAD 41427·DEBRIS·🇺🇸 United States

Lançado Sep 21, 2000 de Vandenberg Space Force Base

Loading…

Próximas Passagens (próximas 24 horas)

TLE

AtualizadoSource: Space-Track

Época: Sep 13, 2026, 13:55 UTC

1 41427U 00055LG  26256.58037094  .00009577  00000-0  25423-2 0  9991
2 41427  98.9214  25.9816 0022652 232.8451 127.0672 14.48712950544566

Acompanhe NOAA 16 DEB em tempo real com AllMySat

Download on the App Store